Wind_Speed
4 4 4 4 4 3 3 3 3 2 2 2 2 1 1 2 2 2 2 2 3 2 2 2 2 2 2 2 2 3 3 2 2 3 3 4 4 5 5 5 6 6 6
5 5 5 5 5 5 4 4 4 3 3 2 3 3 2 2 3 3 4 4 5 4 3 3 3 4 4 4 4 4 4 4 4 3 4 5 6 6 7 7 7 7 7
7 7 7 6 6 6 6 5 5 5 4 4 4 4 4 4 4 5 5 6 5 5 5 4 4 5 6 6 6 5 5 5 5 5 6 6 7 8 8 8 8 8 9
8 9 9 8 8 8 7 7 7 6 5 5 5 5 6 6 6 6 5 6 6 6 5 6 6 6 7 8 7 7 7 7 7 7 8 8 8 9 9 9 9 10 10
9 10 10 9 9 9 8 8 8 8 7 7 7 7 7 7 7 7 6 7 7 7 6 7 7 8 8 8 8 8 8 8 9 9 9 9 9 9 9 10 11 12 12
11 11 11 11 10 10 9 9 9 9 9 9 9 9 9 8 8 7 8 8 8 8 8 8 8 8 8 8 9 9 9 9 10 10 11 10 10 10 11 11 12 12 13
12 12 12 12 11 11 11 10 10 10 10 10 10 10 10 10 9 9 9 9 9 9 9 9 9 9 10 10 10 10 11 11 11 11 11 12 11 11 12 12 13 13 14
12 12 12 12 12 12 12 12 11 11 11 12 11 11 12 12 11 11 10 10 10 11 11 11 11 11 11 11 11 11 12 12 13 13 12 12 12 13 14 14 14 15 15
13 13 13 13 13 14 14 13 12 13 13 13 13 12 12 13 13 13 13 12 12 12 12 13 13 12 13 13 13 13 13 13 13 13 13 13 13 14 15 15 15 15 15
15 14 14 15 14 14 15 15 14 14 14 15 14 14 13 13 14 14 14 14 14 14 14 15 15 14 14 14 14 14 14 14 14 15 15 14 15 15 15 16 16 16 16
16 15 15 15 16 15 15 15 15 15 15 15 15 14 14 15 15 16 16 16 16 16 16 16 17 16 16 16 16 15 16 16 16 16 16 16 16 16 16 17 18 18 18
16 17 16 16 17 16 16 16 16 16 15 16 16 17 16 16 17 17 17 17 16 17 17 18 18 18 18 18 18 17 17 17 17 16 17 17 17 18 19 19 19 20 20
18 18 17 17 18 18 18 18 18 17 17 17 17 17 17 17 17 18 18 18 18 18 19 19 19 19 19 19 19 19 19 19 18 18 18 19 19 20 20 21 21 21 21
19 18 18 18 18 19 19 19 18 18 18 18 18 18 18 18 18 18 19 19 19 19 19 19 19 19 19 20 20 19 19 19 20 20 20 19 19 20 21 21 22 22 23
20 20 19 19 19 19 19 19 19 19 19 19 20 20 20 20 19 19 19 20 19 19 19 19 19 18 19 19 19 20 20 20 20 20 20 21 20 21 22 22 22 23 24
21 20 21 21 21 21 20 20 19 19 20 20 20 21 21 20 20 20 19 19 20 20 20 19 20 20 19 19 19 20 20 20 21 21 21 22 21 21 22 22 23 24 24
22 22 22 22 22 22 21 21 21 20 20 20 20 21 21 20 20 20 20 20 20 21 21 21 20 20 20 19 19 20 21 20 21 22 22 22 22 23 23 23 23 24 25
23 23 22 23 23 22 22 22 22 22 21 20 20 21 21 21 21 21 21 20 20 21 21 21 22 22 21 20 20 20 20 20 21 22 23 23 23 23 24 25 25 26 26
25 24 23 23 24 24 24 24 24 23 22 20 20 20 21 22 23 23 22 21 21 21 22 23 22 22 21 22 22 21 21 21 21 22 23 24 24 24 25 26 26 27 27
26 26 26 25 24 25 25 25 25 25 24 22 21 21 21 22 23 23 23 22 22 22 22 23 22 22 22 23 23 23 22 23 23 23 23 24 24 25 25 26 27 27 28
28 28 28 27 26 27 27 26 25 26 25 24 23 22 22 22 23 23 22 22 22 22 23 23 23 23 23 23 24 24 24 24 24 24 25 25 25 25 26 27 27 27 27
29 29 30 30 29 29 29 29 28 27 26 26 26 26 24 24 24 23 23 22 22 23 24 24 24 24 24 24 25 25 25 26 26 26 26 26 26 26 26 27 27 27 26
30 31 31 31 31 30 30 30 30 29 27 27 27 27 27 25 24 24 24 24 24 24 25 25 25 25 25 25 25 25 26 27 26 26 26 26 26 26 27 27 27 26 26
31 31 32 32 32 32 31 31 31 30 29 28 28 27 26 27 26 26 25 25 25 26 26 26 26 26 26 26 27 26 26 27 28 28 29 29 28 27 27 27 27 27 27
32 32 32 33 33 33 33 32 32 31 30 30 29 29 28 27 27 27 27 27 27 27 27 28 27 27 27 27 28 27 27 28 28 29 29 29 28 28 28 27 27 27 27
33 33 33 34 34 34 34 34 33 32 32 31 31 29 29 29 28 28 29 29 28 28 28 27 27 28 28 28 28 28 28 28 28 29 30 29 29 29 29 28 27 27 27
Wind_Direction
329 325 323 332 337 330 332 339 342 333 339 347 353 359 203 200 204 217 217 210 218 225 229 233 223 235 248 252 247 242 246 259 272 283 290 294 290 291 290 289 289 290 291
307 307 307 307 311 314 306 312 322 315 315 319 320 318 307 253 243 236 240 238 235 239 242 239 248 258 263 264 265 260 258 272 283 290 290 287 288 285 287 287 286 290 292
293 290 289 289 292 298 296 296 305 302 297 298 297 292 290 282 267 250 245 240 235 238 243 250 257 259 261 268 270 267 268 275 285 288 291 290 288 287 286 289 291 290 292
283 284 282 280 283 290 290 290 293 291 288 290 288 285 285 283 280 272 259 252 245 243 246 250 261 269 268 268 267 269 277 282 286 286 288 287 285 286 289 291 295 292 290
272 276 279 278 281 285 286 286 288 285 281 282 283 283 283 281 282 276 269 268 259 254 258 266 272 276 275 270 270 277 282 284 289 289 287 285 286 287 290 294 295 293 290
267 270 273 274 277 279 282 285 288 284 281 280 280 279 279 279 277 274 275 272 267 266 268 268 270 278 278 276 274 275 277 280 287 288 286 285 285 287 288 293 295 296 294
269 269 271 274 275 273 276 278 282 281 281 280 281 283 281 279 277 272 271 271 273 275 276 275 274 279 282 278 279 279 280 279 284 284 285 286 288 290 291 294 294 296 296
268 267 268 269 270 269 271 273 274 277 280 282 282 284 284 280 277 273 270 270 274 274 272 274 275 277 280 280 281 281 283 283 283 281 282 284 286 288 291 293 296 298 299
267 266 267 266 265 266 267 270 272 275 279 281 280 277 280 279 274 271 270 270 273 273 270 270 272 275 276 278 280 280 283 285 285 283 283 284 286 288 291 294 296 296 297
266 267 266 264 263 262 265 268 270 273 278 280 281 279 277 274 271 267 269 272 272 273 271 270 271 271 273 277 280 283 284 284 284 285 283 283 285 288 290 293 295 297 296
267 268 265 259 259 261 264 267 269 272 276 278 278 278 278 277 274 269 267 269 272 274 275 274 274 271 272 274 277 280 281 284 285 285 281 281 284 287 289 291 291 293 295
264 264 264 262 260 260 263 265 268 271 273 276 277 279 278 277 273 268 266 269 272 275 276 277 278 275 272 272 273 277 278 281 284 283 283 282 284 286 288 289 290 292 293
264 261 262 261 261 261 264 267 267 269 273 275 276 276 276 274 271 268 268 269 271 273 275 277 278 277 274 274 274 275 276 277 279 280 282 283 285 287 288 289 288 289 290
265 263 262 261 261 264 264 269 271 271 273 278 278 276 275 273 271 271 270 271 271 274 275 277 279 276 275 275 276 276 278 279 278 280 282 285 286 288 289 289 290 288 288
264 262 262 262 262 265 266 268 269 269 272 275 277 277 276 274 272 273 272 273 273 273 274 277 277 276 278 276 276 275 278 280 281 280 281 283 285 287 289 290 290 289 288
262 263 262 263 263 264 265 267 267 268 269 272 274 275 273 273 274 274 272 273 274 272 273 275 275 276 279 278 279 277 278 279 282 281 280 282 284 287 289 291 290 290 292
262 261 260 262 264 263 263 265 265 267 270 273 274 274 273 273 274 275 274 274 273 272 273 275 273 273 275 278 280 279 278 279 281 281 281 283 286 287 289 290 291 292 292
261 260 260 261 263 263 262 263 264 266 270 273 273 274 274 273 272 273 274 273 273 273 274 273 272 271 273 276 278 280 282 282 284 283 283 285 287 289 289 290 292 292 292
260 259 258 259 260 262 263 262 264 266 269 271 272 273 273 273 273 272 272 272 272 274 275 274 273 273 274 276 279 280 282 284 286 287 287 288 289 290 292 292 294 294 295
260 260 259 260 260 262 263 263 262 264 268 270 271 271 274 275 275 273 271 272 274 275 275 274 274 274 276 277 278 280 282 284 286 288 289 289 290 290 291 292 294 294 294
258 259 258 258 259 260 261 262 262 264 266 269 269 269 272 274 274 273 272 272 272 272 273 273 273 274 275 276 278 280 282 284 286 287 288 288 289 290 290 292 293 294 293
257 258 258 257 257 258 259 261 262 264 263 266 269 269 271 272 273 273 273 273 272 272 272 273 275 276 276 276 278 279 281 283 284 285 287 287 289 291 293 295 296 295 293
257 257 258 258 258 257 258 260 262 264 265 265 268 271 270 273 275 275 275 274 274 273 275 274 275 276 276 277 278 279 281 283 284 285 286 288 289 289 291 293 295 295 294
258 258 257 256 257 257 258 260 261 262 263 264 266 268 269 272 274 273 273 274 274 274 276 276 275 274 275 276 277 280 282 284 284 284 285 288 289 288 290 291 291 293 293
256 257 256 255 257 257 259 259 259 260 261 263 265 266 266 269 271 271 271 272 273 273 274 276 276 275 275 276 278 279 281 283 285 286 287 288 288 289 290 291 291 292 292
256 256 257 257 257 257 258 258 258 258 259 261 263 265 266 268 268 269 270 270 272 272 273 274 276 276 276 276 276 278 280 282 282 284 287 288 288 288 289 289 290 291 292
Height
5919 5919 5918 5917 5916 5915 5914 5913 5912 5911 5910 5909 5909 5908 5907 5907 5907 5906 5906 5906 5906 5906 5906 5906 5906 5906 5906 5906 5906 5906 5905 5905 5905 5904 5904 5903 5903 5902 5902 5901 5901 5900 5899
5919 5918 5917 5917 5916 5915 5914 5913 5912 5911 5910 5910 5909 5908 5907 5907 5906 5906 5906 5905 5905 5905 5906 5906 5905 5905 5905 5905 5905 5905 5905 5904 5904 5904 5903 5903 5902 5901 5900 5900 5899 5898 5898
5918 5918 5917 5916 5915 5915 5914 5913 5912 5911 5910 5909 5908 5908 5907 5906 5906 5905 5905 5905 5904 5905 5905 5905 5904 5904 5904 5904 5904 5904 5903 5903 5903 5902 5902 5901 5901 5900 5899 5898 5897 5896 5895
5917 5916 5915 5915 5914 5914 5913 5912 5911 5910 5910 5909 5908 5907 5906 5906 5905 5904 5904 5904 5904 5904 5904 5904 5903 5903 5903 5903 5902 5902 5902 5901 5901 5900 5900 5899 5898 5898 5897 5896 5895 5894 5893
5915 5915 5914 5913 5913 5912 5912 5911 5910 5909 5909 5908 5907 5906 5906 5905 5904 5903 5903 5903 5902 5902 5902 5902 5902 5902 5901 5901 5901 5900 5900 5900 5899 5898 5898 5897 5896 5895 5895 5894 5893 5891 5890
5913 5912 5912 5911 5911 5911 5910 5910 5909 5908 5907 5906 5906 5905 5904 5903 5903 5902 5902 5901 5901 5901 5900 5900 5900 5900 5899 5899 5899 5898 5898 5897 5897 5896 5895 5895 5894 5893 5892 5891 5890 5889 5887
5910 5910 5909 5909 5909 5909 5908 5908 5907 5906 5906 5905 5904 5903 5902 5902 5901 5901 5900 5900 5899 5899 5899 5898 5898 5897 5897 5897 5896 5896 5895 5895 5894 5893 5893 5892 5891 5890 5889 5888 5887 5886 5885
5907 5907 5907 5906 5906 5906 5906 5905 5905 5904 5903 5903 5902 5901 5900 5900 5899 5899 5898 5897 5897 5897 5896 5896 5896 5895 5894 5894 5893 5893 5892 5892 5891 5891 5890 5889 5888 5887 5886 5885 5884 5882 5881
5904 5904 5904 5903 5903 5903 5903 5903 5902 5902 5901 5900 5899 5898 5897 5897 5896 5896 5895 5895 5894 5894 5893 5893 5893 5892 5891 5891 5890 5890 5889 5888 5888 5887 5886 5885 5885 5884 5883 5882 5880 5879 5878
5900 5900 5900 5900 5900 5900 5900 5900 5899 5899 5898 5897 5896 5895 5894 5894 5893 5893 5893 5892 5891 5891 5890 5890 5889 5889 5888 5888 5887 5886 5886 5885 5884 5883 5883 5882 5881 5880 5879 5878 5876 5875 5874
5896 5896 5896 5896 5896 5896 5896 5896 5895 5895 5894 5894 5893 5892 5891 5890 5890 5889 5889 5888 5888 5887 5886 5886 5885 5884 5884 5883 5883 5882 5882 5881 5880 5879 5878 5877 5876 5875 5874 5873 5872 5871 5869
5892 5892 5892 5892 5892 5892 5892 5891 5891 5891 5890 5889 5889 5888 5887 5886 5885 5885 5884 5884 5883 5883 5882 5881 5881 5880 5879 5879 5878 5878 5877 5877 5876 5875 5874 5873 5872 5871 5869 5868 5867 5866 5865
5887 5887 5887 5887 5887 5887 5887 5887 5886 5886 5886 5885 5884 5883 5882 5881 5881 5880 5880 5879 5879 5878 5878 5877 5876 5875 5875 5874 5873 5873 5872 5872 5871 5870 5869 5868 5867 5866 5864 5863 5862 5860 5859
5881 5882 5882 5882 5882 5882 5882 5882 5882 5881 5881 5880 5879 5879 5878 5877 5876 5875 5875 5874 5874 5873 5873 5872 5871 5870 5870 5869 5868 5868 5867 5867 5866 5865 5864 5863 5862 5860 5859 5857 5856 5854 5853
5876 5876 5877 5877 5877 5877 5877 5877 5877 5876 5876 5875 5875 5874 5873 5872 5871 5871 5870 5869 5869 5869 5868 5867 5866 5865 5864 5863 5863 5862 5862 5861 5860 5860 5859 5857 5856 5855 5853 5852 5850 5849 5847
5870 5870 5871 5871 5871 5872 5872 5872 5871 5871 5871 5870 5870 5869 5868 5867 5866 5865 5864 5864 5864 5864 5863 5862 5861 5860 5859 5858 5857 5857 5856 5855 5855 5854 5853 5852 5850 5849 5848 5846 5844 5843 5841
5863 5864 5864 5865 5865 5866 5866 5866 5866 5866 5865 5865 5864 5863 5862 5861 5860 5860 5859 5859 5858 5858 5857 5857 5856 5855 5854 5853 5852 5852 5851 5850 5849 5848 5847 5846 5845 5843 5842 5840 5838 5836 5834
5857 5857 5858 5858 5859 5859 5860 5860 5860 5860 5859 5859 5858 5857 5856 5856 5855 5854 5854 5853 5853 5852 5852 5851 5850 5849 5849 5848 5847 5846 5845 5844 5843 5842 5841 5840 5838 5837 5835 5834 5832 5830 5828
5849 5850 5851 5851 5852 5852 5853 5853 5853 5853 5853 5852 5852 5851 5851 5850 5849 5849 5848 5847 5847 5846 5845 5845 5844 5843 5843 5842 5841 5841 5840 5839 5837 5836 5835 5834 5832 5831 5829 5827 5825 5823 5821
5842 5842 5843 5844 5845 5846 5846 5846 5846 5846 5846 5845 5845 5845 5844 5844 5843 5842 5841 5841 5841 5840 5840 5839 5838 5837 5837 5836 5836 5835 5834 5833 5831 5830 5828 5827 5826 5824 5822 5820 5818 5816 5814
5834 5835 5836 5837 5838 5838 5838 5838 5839 5839 5838 5838 5839 5838 5838 5837 5836 5835 5835 5834 5834 5834 5834 5833 5832 5831 5831 5830 5830 5829 5828 5826 5825 5823 5822 5820 5819 5817 5815 5813 5811 5809 5806
5826 5827 5827 5828 5829 5830 5831 5831 5831 5831 5831 5832 5832 5832 5831 5830 5829 5829 5828 5827 5827 5827 5826 5826 5825 5825 5824 5824 5823 5822 5821 5819 5818 5816 5815 5813 5811 5809 5807 5805 5803 5801 5799
5817 5818 5818 5819 5820 5821 5822 5822 5823 5823 5823 5824 5824 5824 5823 5823 5823 5822 5821 5821 5820 5820 5819 5819 5818 5818 5817 5816 5815 5815 5814 5812 5811 5809 5808 5806 5804 5802 5800 5798 5796 5794 5792
5807 5808 5809 5810 5811 5812 5813 5813 5814 5814 5815 5816 5816 5816 5815 5815 5815 5815 5814 5814 5813 5813 5812 5811 5810 5810 5809 5808 5808 5807 5806 5805 5803 5802 5800 5798 5796 5794 5792 5790 5788 5786 5784
5797 5798 5799 5800 5802 5802 5803 5804 5805 5805 5806 5807 5807 5807 5807 5807 5807 5807 5806 5806 5806 5805 5804 5804 5803 5802 5801 5801 5800 5799 5798 5797 5795 5794 5792 5790 5788 5786 5784 5783 5781 5779 5777
5787 5788 5789 5790 5792 5792 5793 5794 5795 5796 5797 5798 5798 5798 5799 5799 5799 5798 5798 5797 5797 5797 5796 5795 5795 5794 5793 5792 5792 5791 5790 5789 5787 5786 5784 5782 5780 5778 5777 5775 5773 5771 5769